Location: Alexandria
(38.8050°N, 77.0470°W)
Time: 02:41:53
(UTC-05:00)

N. Korean satellite - Pass Details

Date: 11 November 2017
Orbit: 460 x 514 km, 97.2° (Epoch: 23 November)

Event Time Altitude Azimuth Distance (km) Brightness Sun altitude
Rises 06:13:56 0° 25° (NNE) 2,584 10.4 -6.8°
Reaches altitude 10° 06:16:18 10° 40° (NE) 1,706 9.6 -6.4°
Maximum altitude 06:19:20 24° 96° (E) 1,072 9.5 -5.8°
Drops below altitude 10° 06:22:23 10° 152° (SSE) 1,716 10.1 -5.2°
Sets 06:24:46 0° 166° (SSE) 2,602 10.8 -4.8°
